Location: Apeadero de Los Molinos-Guadarrama
(40.7091°N, 4.0689°W)
Time: 10:17:39
(UTC+00:00)

SJ-6B - Pass Details

Date: 14 May 2021
Orbit: 509 x 580 km, 97.6° (Epoch: 20 June)

Event Time Altitude Azimuth Distance (km) Brightness Sun altitude
Exits shadow 20:12:59 - 171° (S) 2,546 5.8 -8.6°
Reaches altitude 10° 20:14:46 10° 173° (S) 1,800 5.1 -8.9°
Maximum altitude 20:18:39 72° 258° (WSW) 583 3.1 -9.5°
Drops below altitude 10° 20:22:40 10° 344° (NNW) 1,857 6.4 -10.1°
Sets 20:24:51 0° 346° (NNW) 2,769 7.3 -10.4°
